Regional Weather Roundup
Issued by NWS

Home | Current Version | Previous Version | Text Only | Print | Product List | Glossary On
Versions: 1 2 3 4 5 6 7 8 9 10 11 12 13 14 15 16 17 18 19 20 21 22 23 24 25 26 27 28 29 30 31 32 33 34 35 36 37 38 39 40 41 42 43 44 45 46 47 48 49 50
000
ASUS43 KLMK 280110
RWRKY
KENTUCKY REGIONAL WEATHER ROUNDUP
NATIONAL WEATHER SERVICE LOUISVILLE KY
800 PM EST MON FEB 27 2017

NOTE "FAIR" INDICATES FEW OR NO CLOUDS BELOW 12,000 FEET
WITH NO SIGNIFICANT WEATHER AND/OR OBSTRUCTIONS TO VISIBILITY.

KYZ001>023-026-027-061>063-070>075-280200-
WESTERN AND SOUTH CENTRAL KENTUCKY

CITY           SKY/WX    TMP DP  RH WIND       PRES   REMARKS
PADUCAH        PTCLDY    58  45  62 SE5       30.08R
HENDERSON      CLEAR     48  39  71 E3        30.09F
OWENSBORO      CLEAR     54  44  69 SE8       30.12R
HOPKINSVILLE   CLEAR     58  43  56 SE6       30.12S
BOWLING GREEN  CLEAR     54  42  64 S5        30.16S
GLASGOW        CLEAR     53  41  64 CALM      30.16S
$$

KYZ024-025-028>034-038-045-046-053-280200-
NORTH CENTRAL KENTUCKY

CITY           SKY/WX    TMP DP  RH WIND       PRES   REMARKS
LOUISVILLE/SDF CLEAR     53  36  52 E6        30.16R
LOUISVILLE/LOU CLEAR     53  37  54 SE3       30.16R
FORT KNOX      CLEAR     52  39  61 SE5       30.14R
$$

KYZ035>037-039>044-047>052-055>060-089>105-280200-
NORTHEAST KENTUCKY

CITY           SKY/WX    TMP DP  RH WIND       PRES   REMARKS
LEXINGTON      CLEAR     50  39  66 S9        30.19R
COVINGTON      PTCLDY    45  41  86 E5        30.18S
FRANKFORT      CLEAR     43  36  76 CALM      30.17S
$$

KYZ054-064>069-076>088-106>120-280200-
SOUTHEAST KENTUCKY

CITY           SKY/WX    TMP DP  RH WIND       PRES   REMARKS
JACKSON        PTCLDY    49  31  49 SW3       30.23R
LONDON         CLEAR     48  34  58 CALM      30.22S
SOMERSET       CLEAR     48  36  61 S3        30.23R
MIDDLESBORO    CLOUDY    51  36  58 CALM      30.26S
MONTICELLO     CLEAR     52  40  63 VRB7      30.23R
$$




USA.gov is the U.S. government's official web portal to all federal, state and local government web resources and services.